Home   Weather   Compton   Past weeks

Flag for USA Past Weather in Compton, California, USA — Yesterday and Last 2 Weeks

Now
54 °F

Clear.


Feels Like: 54 °F
Forecast: 49 / 65 °F
Wind: No wind

Location: Hawthorne Municipal Airport

Current Time: Dec 5, 2016 at 12:41:50 am

Latest Report: Dec 4, 2016 at 11:53 pm


Visibility: 7 mi

Pressure: 29.98 "Hg

Humidity: 90%

Dew Point: 51 °F

Location of ComptonLocation

Past Weather in Compton — Graph

°F

Compton Temperature Yesterday

Maximum temperature yesterday: 68 °F (at 11:53 am)
Minimum temperature yesterday: 46 °F (at 4:53 am)
Average temperature yesterday: 57 °F

High & Low Weather Summary for the Past Weeks

 TemperatureHumidityPressure
High81 °F (Nov 24, 1:53 pm)100% (Nov 20, 6:53 pm)30.17 "Hg (Nov 20, 6:53 pm)
Low44 °F (Dec 3, 4:53 am)10% (Nov 25, 11:53 am)29.82 "Hg (Nov 28, 4:53 pm)
Average58 °F60%30.02 "Hg
* Reported Nov 19 10:53 pm — Dec 4 10:53 pm, Compton, Weather by CustomWeather, © 2016

Note: Actual official high and low records may vary slightly from our data, if they occured in-between our weather recording intervals... More about our weather records

Advertising

Compton Weather History for the Previous 24 Hours

Scroll right to see more
 ConditionsComfort  
Time TempWeatherWind HumidityBarometerVisibility
10:53 pm
Sun, Dec 4
56 °FClear.No wind87%29.99 "Hg8 mi
9:53 pm57 °FClear.No wind87%29.99 "Hg10 mi
8:53 pm58 °FClear.No wind90%29.99 "Hg9 mi
7:53 pm59 °FClear.No wind81%29.98 "Hg10 mi
6:53 pm61 °FClear.No wind75%29.98 "Hg10 mi
5:53 pm62 °FClear.No wind62%29.98 "Hg10 mi
4:53 pm64 °FClear.5 mph41%29.99 "Hg10 mi
3:53 pm66 °FSunny.6 mph37%29.99 "Hg10 mi
2:53 pm68 °FSunny.6 mph33%29.99 "Hg10 mi
1:53 pm67 °FSunny.5 mph39%30.00 "Hg10 mi
12:53 pm66 °FSunny.9 mph49%30.02 "Hg10 mi
11:53 am68 °FSunny.5 mph42%30.04 "Hg10 mi
10:53 am64 °FSunny.No wind41%30.08 "Hg10 mi
9:53 am61 °FSunny.5 mph56%30.09 "Hg10 mi
8:53 am57 °FSunny.3 mph44%30.08 "Hg10 mi
7:53 am50 °FSunny.No wind50%30.08 "Hg10 mi
6:53 am46 °FSunny.No wind58%30.08 "Hg10 mi
5:53 am46 °FClear.No wind61%30.07 "Hg10 mi
4:53 am46 °FClear.No wind58%30.06 "Hg10 mi
3:53 am47 °FClear.No wind54%30.05 "Hg10 mi
2:53 am50 °FClear.No wind44%30.06 "Hg10 mi
1:53 am49 °FClear.No wind55%30.07 "Hg10 mi
12:53 am50 °FClear.No wind61%30.06 "Hg10 mi
Weather by CustomWeather, © 2016

See weather overviewHow to use our weather pages